Location: Unspecified
(0.0000°N, 0.0000°E)
Time: 01:08:37
(UTC+00:00)

deb Kosmos-1275 - Pass Details

Date: 08 March 2026
Orbit: 936 x 1103 km, 82.9° (Epoch: 14 April)

Event Time Altitude Azimuth Distance (km) Brightness Sun altitude
Rises 19:20:43 0° 341° (NNW) 3,907 ? -17.4°
Reaches altitude 10° 19:23:30 10° 334° (NNW) 2,948 ? -18.1°
Maximum altitude 19:29:48 40° 267° (W) 1,558 ? -19.7°
Drops below altitude 10° 19:35:59 10° 200° (SSW) 2,891 ? -21.2°
Sets 19:38:43 0° 192° (SSW) 3,825 ? -21.9°
